OPS 4682 DEB, 38396

Orbit data source: Space-Track

OPS 4682 DEB, 38396 is space debris in LEO originally from a launch on Sat, 03 Apr 1965 UTC launched from the Air Force Western Test Range (AFWTR). Debris objects in space refer to the collection of defunct objects orbiting the Earth. Examples of debris include non-operational satellites, rocket bodies, and fragments generated from explosions, collisions, or faulty payload assembly.

Loading next visibility...
Identifier
38396, 1965-027CZ
Orbit
LEO
Country
Flag of USUS
Related business
Manufacturer
Unknown
Mission
Spacecraft
Bus & Motor
Unknown
Mass
Unknown
Launch date (UTC)
1965-04-03 (61 years ago)
Launch vehicle
Unknown
Launch site
Air Force Western Test Range (AFWTR)
Object type
Payload
Rocket body
Debris
Shape & HBR
Unknown shape, 0.1 m
Radar Cross Section
Medium (>0.1 m² and <1 m²)

Expand to show TLE details & history
Last TLE update: 6 days ago

TLE from 6 days ago
0 OPS 4682 DEB
1 38396U 65027CZ  26144.07988164  .00000660  00000-0  22286-2 0  9993
2 38396  90.2531  10.7870 0037591 152.8782 207.4313 12.97901673660076
Epoch: 2026-05-24T01:55Z
TLE epoch observation values (Epoch: 2026-05-24T01:55:01.773Z)
Latitude
-0.00006°
Longitude
100.34244°
Altitude
1,298.746 km
Speed
7.195 km/s
True Right ascension
00h 43m 08s
True Declination
0° 00' 00"
Sunlit
Object was in daylight at epoch
Visualization orbit readout
Latitude
Unknown
Longitude
Unknown
Altitude
Unknown
Speed
Unknown
Apparent Right ascension
Unknown
Apparent Declination
Unknown
Sunlit
N/A
Visualization observer readout
Local Sidereal Time
22:04:30
Azimuth
Unknown
Elevation
Unknown
Doppler factor
Unknown
Orbital elements
Apogee altitude
1,296.19 km
Perigee altitude
1,238.709 km
Semi-major axis
7,645.586 km
Eccentricity
0.00376
Inclination
90.2531°
RAAN
10.787°
Arg. of periapsis
152.8782°
True anomaly
207.23368°
Mean anomaly
207.4313°
Eccentric anomaly
207.33241°
Mean motion
3.24659 °/min
Orbital period
110.89 mins
BSTAR
0.0022286
Loading maneuver chart data...
Computing Atmospheric mass density...
Loading historical data...
Loading historical data...
Loading historical data...
Loading historical data...
Loading historical data...
Loading historical data...
Loading historical data...

Documentation

Showing up to 5 results
|